SHIYAN 22B (SY-22B) (55243 NORAD) Tracking and Keplerian Element Data

This shows tracking and keplerian element data for the satellite.

Feedback or suggestion? Click here.




ElementValue
Catalog55243
NameSHIYAN 22B (SY-22B)
Epoch Orbit1092
Epoch Day85.18998221
Epoch Year2023
RAAN167.7682
Inclination43.2016
Eccentricity0.001009
Argument of Perigee11.1585
Mean Anonmoly202.5031
Mean Motion15.18513503
Decay Rate0.00018559
L11 55243U 23006B 23085.18998221 .00018559 00000+0 89115-3 0 9992
L22 55243 43.2016 167.7682 0010090 11.1585 202.5031 15.18513503 10922



Live tracking and technical data element details for SHIYAN 22B (SY-22B) (NORAD 55243). SHIYAN 22B (SY-22B) can be tracked NOW for your location showing map with azimuth and elevation plus other details from your city location.







IsCatalogInMostPopularTable: catalog: 55243, numindb: 17
Update: records affected: 1



GetName: 55243 SHIYAN 22B (SY-22B)

Hit Count: updated at: Mon, 27 Mar 2023 08:07:09 GMT